Location: ?????
(31.8092°N, 35.2590°E)
Time: 09:58:50
(UTC+00:00)

Cosmos 1455 Rocket - Visible Passes

Search period start: 16 October 2021 00:00
Search period end: 26 October 2021 00:00
Orbit: 605 x 628 km, 82.5° (Epoch: 15 October)

Date Brightness Start Highest point End Pass type
(mag) Time Alt. Az. Time Alt. Az. Time Alt. Az.
16 Oct 6.7 02:28:42 10° ENE 02:29:13 10° ENE 02:29:43 10° E visible
16 Oct 3.5 16:28:27 10° SSW 16:32:47 64° W 16:37:10 10° N visible
17 Oct 6.0 02:42:52 10° NNE 02:46:08 20° ENE 02:49:24 10° SE visible
17 Oct 4.9 16:45:40 10° SW 16:49:33 31° W 16:53:30 10° NNW visible
18 Oct 4.8 02:58:49 10° NNE 03:02:59 38° E 03:07:06 10° SSE visible
18 Oct 3.8 15:24:46 10° SSE 15:28:36 30° E 15:32:28 10° NNE visible
18 Oct 6.0 17:03:37 10° WSW 17:06:25 16° WNW 17:09:14 10° NW visible
19 Oct 3.3 03:15:16 10° N 03:19:44 78° E 03:24:09 10° S visible
19 Oct 3.0 15:40:53 10° S 15:45:11 62° E 15:49:34 10° NNE visible
20 Oct 6.6 01:58:04 10° ENE 01:58:18 10° ENE 01:58:33 10° ENE visible
20 Oct 3.5 15:57:32 10° SSW 16:01:52 64° W 16:06:17 10° N visible
21 Oct 5.9 02:11:59 10° NNE 02:15:14 20° ENE 02:18:28 10° SE visible
21 Oct 5.0 16:14:43 10° SW 16:18:39 32° W 16:22:37 10° NNW visible
22 Oct 4.6 02:27:56 10° NNE 02:32:05 38° E 02:36:11 10° SSE visible
22 Oct 6.1 16:32:40 10° WSW 16:35:31 17° WNW 16:38:22 10° NW visible
23 Oct 3.2 02:44:23 10° N 02:48:49 78° E 02:53:13 10° S visible
24 Oct 3.2 03:01:10 10° NNW 03:05:29 51° W 03:09:45 10° SSW visible
24 Oct 3.6 15:26:36 10° SSW 15:30:57 65° W 15:35:22 10° N visible
25 Oct 5.7 01:41:05 10° NNE 01:44:20 20° ENE 01:47:32 10° ESE visible
25 Oct 4.1 03:18:24 10° NW 03:22:04 26° W 03:25:41 10° SW visible
25 Oct 5.1 15:43:47 10° SW 15:47:43 32° W 15:51:43 10° NNW visible
